Year,Month,Day,Hour,Minute,Value (Times are PST for temperature in C)
2008,09,29,00,00,9.10
2008,09,29,00,01,9.10
2008,09,29,00,02,9.10
2008,09,29,00,03,9.00
2008,09,29,00,04,9.00
2008,09,29,00,05,9.00
2008,09,29,00,06,9.00
2008,09,29,00,07,9.00
2008,09,29,00,08,9.00
2008,09,29,00,09,9.00
2008,09,29,00,10,9.00
2008,09,29,00,11,8.90
2008,09,29,00,12,8.90
2008,09,29,00,13,8.90
2008,09,29,00,14,8.90
2008,09,29,00,15,8.90
2008,09,29,00,16,8.90
2008,09,29,00,17,8.90
2008,09,29,00,18,8.90
2008,09,29,00,19,8.90
2008,09,29,00,20,8.90
2008,09,29,00,21,8.90
2008,09,29,00,22,8.90
2008,09,29,00,23,8.90
2008,09,29,00,24,8.80
2008,09,29,00,25,8.80
2008,09,29,00,26,8.80
2008,09,29,00,27,8.80
2008,09,29,00,28,8.80
2008,09,29,00,29,8.80
2008,09,29,00,30,8.80
2008,09,29,00,31,8.80
2008,09,29,00,32,8.80
2008,09,29,00,33,8.80
2008,09,29,00,34,8.80
2008,09,29,00,35,8.80
2008,09,29,00,36,8.80
2008,09,29,00,37,8.80
2008,09,29,00,38,8.80
2008,09,29,00,39,8.80
2008,09,29,00,40,8.80
2008,09,29,00,41,8.80
2008,09,29,00,42,8.80
2008,09,29,00,43,8.80
2008,09,29,00,44,8.80
2008,09,29,00,45,8.80
2008,09,29,00,46,8.80
2008,09,29,00,47,8.80
2008,09,29,00,48,8.70
2008,09,29,00,49,8.70
2008,09,29,00,50,8.70
2008,09,29,00,51,8.70
2008,09,29,00,52,8.70
2008,09,29,00,53,8.70
2008,09,29,00,54,8.70
2008,09,29,00,55,8.70
2008,09,29,00,56,8.70
2008,09,29,00,57,8.70
2008,09,29,00,58,8.70
2008,09,29,00,59,8.70
2008,09,29,01,00,8.70
2008,09,29,01,01,8.60
2008,09,29,01,02,8.60
2008,09,29,01,03,8.60
2008,09,29,01,04,8.60
2008,09,29,01,05,8.60
2008,09,29,01,06,8.60
2008,09,29,01,07,8.60
2008,09,29,01,08,8.60
2008,09,29,01,09,8.60
2008,09,29,01,10,8.60
2008,09,29,01,11,8.60
2008,09,29,01,12,8.60
2008,09,29,01,13,8.60
2008,09,29,01,14,8.50
2008,09,29,01,15,8.50
2008,09,29,01,16,8.50
2008,09,29,01,17,8.50
2008,09,29,01,18,8.50
2008,09,29,01,19,8.50
2008,09,29,01,20,8.50
2008,09,29,01,21,8.50
2008,09,29,01,22,8.50
2008,09,29,01,23,8.50
2008,09,29,01,24,8.40
2008,09,29,01,25,8.50
2008,09,29,01,26,8.40
2008,09,29,01,27,8.40
2008,09,29,01,28,8.40
2008,09,29,01,29,8.40
2008,09,29,01,30,8.40
2008,09,29,01,31,8.40
2008,09,29,01,32,8.40
2008,09,29,01,33,8.40
2008,09,29,01,34,8.40
2008,09,29,01,35,8.40
2008,09,29,01,36,8.40
2008,09,29,01,37,8.40
2008,09,29,01,38,8.40
2008,09,29,01,39,8.40
2008,09,29,01,40,8.40
2008,09,29,01,41,8.40
2008,09,29,01,42,8.40
2008,09,29,01,43,8.40
2008,09,29,01,44,8.40
2008,09,29,01,45,8.40
2008,09,29,01,46,8.40
2008,09,29,01,47,8.40
2008,09,29,01,48,8.40
2008,09,29,01,49,8.40
2008,09,29,01,50,8.40
2008,09,29,01,51,8.40
2008,09,29,01,52,8.40
2008,09,29,01,53,8.40
2008,09,29,01,54,8.40
2008,09,29,01,55,8.40
2008,09,29,01,56,8.40
2008,09,29,01,57,8.40
2008,09,29,01,58,8.40
2008,09,29,01,59,8.40
2008,09,29,02,00,8.40
2008,09,29,02,01,8.40
2008,09,29,02,02,8.40
2008,09,29,02,03,8.40
2008,09,29,02,04,8.40
2008,09,29,02,05,8.50
2008,09,29,02,06,8.40
2008,09,29,02,07,8.50
2008,09,29,02,08,8.50
2008,09,29,02,09,8.50
2008,09,29,02,10,8.50
2008,09,29,02,11,8.50
2008,09,29,02,12,8.50
2008,09,29,02,13,8.50
2008,09,29,02,14,8.60
2008,09,29,02,15,8.60
2008,09,29,02,16,8.60
2008,09,29,02,17,8.50
2008,09,29,02,18,8.50
2008,09,29,02,19,8.60
2008,09,29,02,20,8.60
2008,09,29,02,21,8.60
2008,09,29,02,22,8.60
2008,09,29,02,23,8.60
2008,09,29,02,24,8.60
2008,09,29,02,25,8.60
2008,09,29,02,26,8.70
2008,09,29,02,27,8.70
2008,09,29,02,28,8.70
2008,09,29,02,29,8.70
2008,09,29,02,30,8.70
2008,09,29,02,31,8.70
2008,09,29,02,32,8.70
2008,09,29,02,33,8.70
2008,09,29,02,34,8.70
2008,09,29,02,35,8.70
2008,09,29,02,36,8.70
2008,09,29,02,37,8.70
2008,09,29,02,38,8.70
2008,09,29,02,39,8.70
2008,09,29,02,40,8.70
2008,09,29,02,41,8.60
2008,09,29,02,42,8.60
2008,09,29,02,43,8.60
2008,09,29,02,44,8.70
2008,09,29,02,45,8.70
2008,09,29,02,46,8.70
2008,09,29,02,47,8.60
2008,09,29,02,48,8.60
2008,09,29,02,49,8.60
2008,09,29,02,50,8.60
2008,09,29,02,51,8.60
2008,09,29,02,52,8.60
2008,09,29,02,53,8.60
2008,09,29,02,54,8.60
2008,09,29,02,55,8.60
2008,09,29,02,56,8.60
2008,09,29,02,57,8.60
2008,09,29,02,58,8.60
2008,09,29,02,59,8.60
2008,09,29,03,00,8.60
2008,09,29,03,01,8.60
2008,09,29,03,02,8.60
2008,09,29,03,03,8.60
2008,09,29,03,04,8.60
2008,09,29,03,05,8.60
2008,09,29,03,06,8.60
2008,09,29,03,07,8.60
2008,09,29,03,08,8.60
2008,09,29,03,09,8.60
2008,09,29,03,10,8.60
2008,09,29,03,11,8.50
2008,09,29,03,12,8.50
2008,09,29,03,13,8.50
2008,09,29,03,14,8.50
2008,09,29,03,15,8.50
2008,09,29,03,16,8.50
2008,09,29,03,17,8.40
2008,09,29,03,18,8.40
2008,09,29,03,19,8.40
2008,09,29,03,20,8.40
2008,09,29,03,21,8.40
2008,09,29,03,22,8.40
2008,09,29,03,23,8.40
2008,09,29,03,24,8.40
2008,09,29,03,25,8.40
2008,09,29,03,26,8.40
2008,09,29,03,27,8.40
2008,09,29,03,28,8.40
2008,09,29,03,29,8.40
2008,09,29,03,30,8.40
2008,09,29,03,31,8.40
2008,09,29,03,32,8.40
2008,09,29,03,33,8.40
2008,09,29,03,34,8.40
2008,09,29,03,35,8.40
2008,09,29,03,36,8.40
2008,09,29,03,37,8.50
2008,09,29,03,38,8.50
2008,09,29,03,39,8.50
2008,09,29,03,40,8.50
2008,09,29,03,41,8.50
2008,09,29,03,42,8.50
2008,09,29,03,43,8.40
2008,09,29,03,44,8.40
2008,09,29,03,45,8.40
2008,09,29,03,46,8.40
2008,09,29,03,47,8.40
2008,09,29,03,48,8.50
2008,09,29,03,49,8.50
2008,09,29,03,50,8.50
2008,09,29,03,51,8.50
2008,09,29,03,52,8.50
2008,09,29,03,53,8.50
2008,09,29,03,54,8.50
2008,09,29,03,55,8.50
2008,09,29,03,56,8.50
2008,09,29,03,57,8.50
2008,09,29,03,58,8.40
2008,09,29,03,59,8.40
2008,09,29,04,00,8.40
2008,09,29,04,01,8.40
2008,09,29,04,02,8.40
2008,09,29,04,03,8.40
2008,09,29,04,04,8.40
2008,09,29,04,05,8.40
2008,09,29,04,06,8.40
2008,09,29,04,07,8.30
2008,09,29,04,08,8.30
2008,09,29,04,09,8.30
2008,09,29,04,10,8.30
2008,09,29,04,11,8.30
2008,09,29,04,12,8.30
2008,09,29,04,13,8.20
2008,09,29,04,14,8.20
2008,09,29,04,15,8.20
2008,09,29,04,16,8.20
2008,09,29,04,17,8.20
2008,09,29,04,18,8.20
2008,09,29,04,19,8.10
2008,09,29,04,20,8.10
2008,09,29,04,21,8.10
2008,09,29,04,22,8.10
2008,09,29,04,23,8.10
2008,09,29,04,24,8.10
2008,09,29,04,25,8.10
2008,09,29,04,26,8.10
2008,09,29,04,27,8.10
2008,09,29,04,28,8.10
2008,09,29,04,29,8.10
2008,09,29,04,30,8.10
2008,09,29,04,31,8.20
2008,09,29,04,32,8.30
2008,09,29,04,33,8.30
2008,09,29,04,34,8.40
2008,09,29,04,35,8.40
2008,09,29,04,36,8.50
2008,09,29,04,37,8.60
2008,09,29,04,38,8.70
2008,09,29,04,39,8.80
2008,09,29,04,40,8.80
2008,09,29,04,41,8.90
2008,09,29,04,42,9.00
2008,09,29,04,43,9.00
2008,09,29,04,44,9.10
2008,09,29,04,45,9.10
2008,09,29,04,46,9.10
2008,09,29,04,47,9.20
2008,09,29,04,48,9.30
2008,09,29,04,49,9.40
2008,09,29,04,50,9.50
2008,09,29,04,51,9.60
2008,09,29,04,52,9.80
2008,09,29,04,53,9.80
2008,09,29,04,54,9.90
2008,09,29,04,55,10.00
2008,09,29,04,56,10.10
2008,09,29,04,57,10.20
2008,09,29,04,58,10.30
2008,09,29,04,59,10.40
2008,09,29,05,00,10.50
2008,09,29,05,01,10.60
2008,09,29,05,02,10.70
2008,09,29,05,03,10.90
2008,09,29,05,04,11.00
2008,09,29,05,05,11.10
2008,09,29,05,06,11.20
2008,09,29,05,07,11.30
2008,09,29,05,08,11.40
2008,09,29,05,09,11.50
2008,09,29,05,10,11.60
2008,09,29,05,11,11.70
2008,09,29,05,12,11.80
2008,09,29,05,13,11.90
2008,09,29,05,14,11.90
2008,09,29,05,15,12.00
2008,09,29,05,16,12.10
2008,09,29,05,17,12.20
2008,09,29,05,18,12.30
2008,09,29,05,19,12.30
2008,09,29,05,20,12.30
2008,09,29,05,21,12.30
2008,09,29,05,22,12.30
2008,09,29,05,23,12.30
2008,09,29,05,24,12.20
2008,09,29,05,25,12.20
2008,09,29,05,26,12.10
2008,09,29,05,27,11.90
2008,09,29,05,28,11.80
2008,09,29,05,29,11.60
2008,09,29,05,30,11.50
2008,09,29,05,31,11.30
2008,09,29,05,32,11.20
2008,09,29,05,33,11.10
2008,09,29,05,34,11.00
2008,09,29,05,35,10.90
2008,09,29,05,36,10.80
2008,09,29,05,37,10.70
2008,09,29,05,38,10.70
2008,09,29,05,39,10.60
2008,09,29,05,40,10.60
2008,09,29,05,41,10.50
2008,09,29,05,42,10.40
2008,09,29,05,43,10.40
2008,09,29,05,44,10.30
2008,09,29,05,45,10.30
2008,09,29,05,46,10.30
2008,09,29,05,47,10.20
2008,09,29,05,48,10.20
2008,09,29,05,49,10.10
2008,09,29,05,50,10.10
2008,09,29,05,51,10.10
2008,09,29,05,52,10.00
2008,09,29,05,53,10.00
2008,09,29,05,54,9.90
2008,09,29,05,55,9.90
2008,09,29,05,56,9.80
2008,09,29,05,57,9.80
2008,09,29,05,58,9.80
2008,09,29,05,59,9.80
2008,09,29,06,00,9.80
2008,09,29,06,01,9.80
2008,09,29,06,02,9.80
2008,09,29,06,03,9.80
2008,09,29,06,04,9.90
2008,09,29,06,05,9.90
2008,09,29,06,06,10.00
2008,09,29,06,07,10.00
2008,09,29,06,08,10.00
2008,09,29,06,09,10.00
2008,09,29,06,10,10.00
2008,09,29,06,11,9.90
2008,09,29,06,12,9.90
2008,09,29,06,13,9.90
2008,09,29,06,14,9.90
2008,09,29,06,15,9.80
2008,09,29,06,16,9.80
2008,09,29,06,17,9.80
2008,09,29,06,18,9.80
2008,09,29,06,19,9.70
2008,09,29,06,20,9.70
2008,09,29,06,21,9.70
2008,09,29,06,22,9.60
2008,09,29,06,23,9.60
2008,09,29,06,24,9.70
2008,09,29,06,25,9.70
2008,09,29,06,26,9.70
2008,09,29,06,27,9.70
2008,09,29,06,28,9.70
2008,09,29,06,29,9.70
2008,09,29,06,30,9.70
2008,09,29,06,31,9.70
2008,09,29,06,32,9.70
2008,09,29,06,33,9.60
2008,09,29,06,34,9.60
2008,09,29,06,35,9.60
2008,09,29,06,36,9.60
2008,09,29,06,37,9.60
2008,09,29,06,38,9.60
2008,09,29,06,39,9.60
2008,09,29,06,40,9.60
2008,09,29,06,41,9.60
2008,09,29,06,42,9.60
2008,09,29,06,43,9.60
2008,09,29,06,44,9.60
2008,09,29,06,45,9.60
2008,09,29,06,46,9.60
2008,09,29,06,47,9.60
2008,09,29,06,48,9.60
2008,09,29,06,49,9.60
2008,09,29,06,50,9.60
2008,09,29,06,51,9.60
2008,09,29,06,52,9.60
2008,09,29,06,53,9.60
2008,09,29,06,54,9.60
2008,09,29,06,55,9.60
2008,09,29,06,56,9.60
2008,09,29,06,57,9.60
2008,09,29,06,58,9.60
2008,09,29,06,59,9.60
2008,09,29,07,00,9.60
2008,09,29,07,01,9.60
2008,09,29,07,02,9.60
2008,09,29,07,03,9.60
2008,09,29,07,04,9.60
2008,09,29,07,05,9.60
2008,09,29,07,06,9.60
2008,09,29,07,07,9.60
2008,09,29,07,08,9.50
2008,09,29,07,09,9.50
2008,09,29,07,10,9.50
2008,09,29,07,11,9.40
2008,09,29,07,12,9.40
2008,09,29,07,13,9.40
2008,09,29,07,14,9.40
2008,09,29,07,15,9.40
2008,09,29,07,16,9.40
2008,09,29,07,17,9.40
2008,09,29,07,18,9.40
2008,09,29,07,19,9.40
2008,09,29,07,20,9.30
2008,09,29,07,21,9.30
2008,09,29,07,22,9.30
2008,09,29,07,23,9.30
2008,09,29,07,24,9.30
2008,09,29,07,25,9.40
2008,09,29,07,26,9.40
2008,09,29,07,27,9.40
2008,09,29,07,28,9.40
2008,09,29,07,29,9.40
2008,09,29,07,30,9.50
2008,09,29,07,31,9.50
2008,09,29,07,32,9.50
2008,09,29,07,33,9.50
2008,09,29,07,34,9.50
2008,09,29,07,35,9.50
2008,09,29,07,36,9.50
2008,09,29,07,37,9.50
2008,09,29,07,38,9.50
2008,09,29,07,39,9.60
2008,09,29,07,40,9.60
2008,09,29,07,41,9.60
2008,09,29,07,42,9.60
2008,09,29,07,43,9.60
2008,09,29,07,44,9.60
2008,09,29,07,45,9.60
2008,09,29,07,46,9.60
2008,09,29,07,47,9.60
2008,09,29,07,48,9.60
2008,09,29,07,49,9.60
2008,09,29,07,50,9.60
2008,09,29,07,51,9.50
2008,09,29,07,52,9.50
2008,09,29,07,53,9.50
2008,09,29,07,54,9.50
2008,09,29,07,55,9.40
2008,09,29,07,56,9.40
2008,09,29,07,57,9.40
2008,09,29,07,58,9.40
2008,09,29,07,59,9.40
2008,09,29,08,00,9.40
2008,09,29,08,01,9.40
2008,09,29,08,02,9.40
2008,09,29,08,03,9.40
2008,09,29,08,04,9.40
2008,09,29,08,05,9.40
2008,09,29,08,06,9.40
2008,09,29,08,07,9.50
2008,09,29,08,08,9.50
2008,09,29,08,09,9.60
2008,09,29,08,10,9.60
2008,09,29,08,11,9.70
2008,09,29,08,12,9.70
2008,09,29,08,13,9.70
2008,09,29,08,14,9.70
2008,09,29,08,15,9.70
2008,09,29,08,16,9.70
2008,09,29,08,17,9.80
2008,09,29,08,18,9.80
2008,09,29,08,19,9.80
2008,09,29,08,20,9.80
2008,09,29,08,21,9.90
2008,09,29,08,22,9.90
2008,09,29,08,23,9.90
2008,09,29,08,24,10.00
2008,09,29,08,25,10.10
2008,09,29,08,26,10.10
2008,09,29,08,27,10.10
2008,09,29,08,28,10.20
2008,09,29,08,29,10.20
2008,09,29,08,30,10.30
2008,09,29,08,31,10.30
2008,09,29,08,32,10.40
2008,09,29,08,33,10.40
2008,09,29,08,34,10.40
2008,09,29,08,35,10.50
2008,09,29,08,36,10.60
2008,09,29,08,37,10.60
2008,09,29,08,38,10.60
2008,09,29,08,39,10.70
2008,09,29,08,40,10.80
2008,09,29,08,41,10.80
2008,09,29,08,42,10.90
2008,09,29,08,43,10.90
2008,09,29,08,44,10.90
2008,09,29,08,45,10.90
2008,09,29,08,46,11.00
2008,09,29,08,47,11.00
2008,09,29,08,48,11.10
2008,09,29,08,49,11.10
2008,09,29,08,50,11.20
2008,09,29,08,51,11.20
2008,09,29,08,52,11.30
2008,09,29,08,53,11.30
2008,09,29,08,54,11.40
2008,09,29,08,55,11.60
2008,09,29,08,56,11.80
2008,09,29,08,57,12.00
2008,09,29,08,58,12.20
2008,09,29,08,59,12.40
2008,09,29,09,00,12.70
2008,09,29,09,01,13.00
2008,09,29,09,02,13.30
2008,09,29,09,03,13.60
2008,09,29,09,04,13.80
2008,09,29,09,05,14.00
2008,09,29,09,06,14.20
2008,09,29,09,07,14.40
2008,09,29,09,08,14.60
2008,09,29,09,09,14.90
2008,09,29,09,10,15.00
2008,09,29,09,11,15.10
2008,09,29,09,12,15.40
2008,09,29,09,13,15.50
2008,09,29,09,14,15.70
2008,09,29,09,15,15.80
2008,09,29,09,16,16.00
2008,09,29,09,17,16.20
2008,09,29,09,18,16.30
2008,09,29,09,19,16.50
2008,09,29,09,20,16.70
2008,09,29,09,21,16.80
2008,09,29,09,22,17.00
2008,09,29,09,23,17.10
2008,09,29,09,24,17.20
2008,09,29,09,25,17.30
2008,09,29,09,26,17.40
2008,09,29,09,27,17.50
2008,09,29,09,28,17.50
2008,09,29,09,29,17.60
2008,09,29,09,30,17.70
2008,09,29,09,31,17.80
2008,09,29,09,32,17.90
2008,09,29,09,33,18.00
2008,09,29,09,34,18.00
2008,09,29,09,35,18.20
2008,09,29,09,36,18.20
2008,09,29,09,37,18.40
2008,09,29,09,38,18.50
2008,09,29,09,39,18.50
2008,09,29,09,40,18.60
2008,09,29,09,41,18.70
2008,09,29,09,42,18.70
2008,09,29,09,43,18.70
2008,09,29,09,44,18.80
2008,09,29,09,45,18.80
2008,09,29,09,46,18.80
2008,09,29,09,47,18.90
2008,09,29,09,48,18.90
2008,09,29,09,49,19.00
2008,09,29,09,50,19.00
2008,09,29,09,51,19.10
2008,09,29,09,52,19.10
2008,09,29,09,53,19.20
2008,09,29,09,54,19.20
2008,09,29,09,55,19.20
2008,09,29,09,56,19.20
2008,09,29,09,57,19.20
2008,09,29,09,58,19.30
2008,09,29,09,59,19.30
2008,09,29,10,00,19.30
2008,09,29,10,01,19.30
2008,09,29,10,02,19.30
2008,09,29,10,03,19.30
2008,09,29,10,04,19.30
2008,09,29,10,05,19.30
2008,09,29,10,06,19.30
2008,09,29,10,07,19.30
2008,09,29,10,08,19.30
2008,09,29,10,09,19.40
2008,09,29,10,10,19.40
2008,09,29,10,11,19.40
2008,09,29,10,12,19.40
2008,09,29,10,13,19.40
2008,09,29,10,14,19.50
2008,09,29,10,15,19.50
2008,09,29,10,16,19.50
2008,09,29,10,17,19.60
2008,09,29,10,18,19.60
2008,09,29,10,19,19.70
2008,09,29,10,20,19.70
2008,09,29,10,21,19.80
2008,09,29,10,22,19.80
2008,09,29,10,23,19.80
2008,09,29,10,24,19.80
2008,09,29,10,25,19.90
2008,09,29,10,26,19.90
2008,09,29,10,27,19.90
2008,09,29,10,28,20.00
2008,09,29,10,29,20.00
2008,09,29,10,30,20.10
2008,09,29,10,31,20.10
2008,09,29,10,32,20.10
2008,09,29,10,33,20.10
2008,09,29,10,34,20.10
2008,09,29,10,35,20.20
2008,09,29,10,36,20.20
2008,09,29,10,37,20.20
2008,09,29,10,38,20.20
2008,09,29,10,39,20.20
2008,09,29,10,40,20.30
2008,09,29,10,41,20.30
2008,09,29,10,42,20.30
2008,09,29,10,43,20.40
2008,09,29,10,44,20.40
2008,09,29,10,45,20.40
2008,09,29,10,46,20.30
2008,09,29,10,47,20.30
2008,09,29,10,48,20.40
2008,09,29,10,49,20.40
2008,09,29,10,50,20.40
2008,09,29,10,51,20.40
2008,09,29,10,52,20.40
2008,09,29,10,53,20.40
2008,09,29,10,54,20.50
2008,09,29,10,55,20.50
2008,09,29,10,56,20.50
2008,09,29,10,57,20.50
2008,09,29,10,58,20.50
2008,09,29,10,59,20.60
2008,09,29,11,00,20.60
2008,09,29,11,01,20.60
2008,09,29,11,02,20.50
2008,09,29,11,03,20.50
2008,09,29,11,04,20.50
2008,09,29,11,05,20.50
2008,09,29,11,06,20.50
2008,09,29,11,07,20.60
2008,09,29,11,08,20.60
2008,09,29,11,09,20.60
2008,09,29,11,10,20.60
2008,09,29,11,11,20.70
2008,09,29,11,12,20.80
2008,09,29,11,13,20.80
2008,09,29,11,14,20.80
2008,09,29,11,15,20.80
2008,09,29,11,16,20.90
2008,09,29,11,17,20.90
2008,09,29,11,18,20.90
2008,09,29,11,19,20.90
2008,09,29,11,20,21.00
2008,09,29,11,21,21.00
2008,09,29,11,22,21.00
2008,09,29,11,23,21.00
2008,09,29,11,24,21.00
2008,09,29,11,25,21.10
2008,09,29,11,26,21.10
2008,09,29,11,27,21.10
2008,09,29,11,28,21.20
2008,09,29,11,29,21.20
2008,09,29,11,30,21.30
2008,09,29,11,31,21.30
2008,09,29,11,32,21.40
2008,09,29,11,33,21.40
2008,09,29,11,34,21.50
2008,09,29,11,35,21.50
2008,09,29,11,36,21.60
2008,09,29,11,37,21.60
2008,09,29,11,38,21.70
2008,09,29,11,39,21.70
2008,09,29,11,40,21.70
2008,09,29,11,41,21.70
2008,09,29,11,42,21.80
2008,09,29,11,43,21.80
2008,09,29,11,44,21.80
2008,09,29,11,45,21.80
2008,09,29,11,46,21.80
2008,09,29,11,47,21.80
2008,09,29,11,48,21.80
2008,09,29,11,49,21.80
2008,09,29,11,50,21.80
2008,09,29,11,51,21.80
2008,09,29,11,52,21.80
2008,09,29,11,53,21.70
2008,09,29,11,54,21.70
2008,09,29,11,55,21.70
2008,09,29,11,56,21.70
2008,09,29,11,57,21.70
2008,09,29,11,58,21.80
2008,09,29,11,59,21.80
2008,09,29,12,00,21.80
2008,09,29,12,01,21.80
2008,09,29,12,02,21.80
2008,09,29,12,03,21.80
2008,09,29,12,04,21.80
2008,09,29,12,05,21.80
2008,09,29,12,06,21.70
2008,09,29,12,07,21.70
2008,09,29,12,08,21.70
2008,09,29,12,09,21.70
2008,09,29,12,10,21.70
2008,09,29,12,11,21.80
2008,09,29,12,12,21.80
2008,09,29,12,13,21.80
2008,09,29,12,14,21.90
2008,09,29,12,15,22.00
2008,09,29,12,16,22.10
2008,09,29,12,17,22.10
2008,09,29,12,18,22.10
2008,09,29,12,19,22.10
2008,09,29,12,20,22.10
2008,09,29,12,21,22.20
2008,09,29,12,22,22.20
2008,09,29,12,23,22.20
2008,09,29,12,24,22.10
2008,09,29,12,25,22.20
2008,09,29,12,26,22.20
2008,09,29,12,27,22.20
2008,09,29,12,28,22.20
2008,09,29,12,29,22.20
2008,09,29,12,30,22.20
2008,09,29,12,31,22.20
2008,09,29,12,32,22.20
2008,09,29,12,33,22.20
2008,09,29,12,34,22.20
2008,09,29,12,35,22.20
2008,09,29,12,36,22.20
2008,09,29,12,37,22.20
2008,09,29,12,38,22.20
2008,09,29,12,39,22.30
2008,09,29,12,40,22.30
2008,09,29,12,41,22.40
2008,09,29,12,42,22.50
2008,09,29,12,43,22.50
2008,09,29,12,44,22.60
2008,09,29,12,45,22.60
2008,09,29,12,46,22.70
2008,09,29,12,47,22.70
2008,09,29,12,48,22.70
2008,09,29,12,49,22.70
2008,09,29,12,50,22.60
2008,09,29,12,51,22.60
2008,09,29,12,52,22.50
2008,09,29,12,53,22.50
2008,09,29,12,54,22.50
2008,09,29,12,55,22.50
2008,09,29,12,56,22.50
2008,09,29,12,57,22.60
2008,09,29,12,58,22.60
2008,09,29,12,59,22.60
2008,09,29,13,00,22.60
2008,09,29,13,01,22.60
2008,09,29,13,02,22.70
2008,09,29,13,03,22.70
2008,09,29,13,04,22.70
2008,09,29,13,05,22.70
2008,09,29,13,06,22.80
2008,09,29,13,07,22.80
2008,09,29,13,08,22.80
2008,09,29,13,09,22.90
2008,09,29,13,10,22.90
2008,09,29,13,11,23.00
2008,09,29,13,12,23.00
2008,09,29,13,13,23.00
2008,09,29,13,14,23.00
2008,09,29,13,15,22.90
2008,09,29,13,16,22.90
2008,09,29,13,17,22.90
2008,09,29,13,18,22.80
2008,09,29,13,19,22.80
2008,09,29,13,20,22.80
2008,09,29,13,21,22.70
2008,09,29,13,22,22.70
2008,09,29,13,23,22.70
2008,09,29,13,24,22.70
2008,09,29,13,25,22.60
2008,09,29,13,26,22.60
2008,09,29,13,27,22.70
2008,09,29,13,28,22.70
2008,09,29,13,29,22.70
2008,09,29,13,30,22.80
2008,09,29,13,31,22.80
2008,09,29,13,32,22.90
2008,09,29,13,33,22.90
2008,09,29,13,34,22.90
2008,09,29,13,35,22.80
2008,09,29,13,36,22.80
2008,09,29,13,37,22.80
2008,09,29,13,38,22.80
2008,09,29,13,39,22.80
2008,09,29,13,40,22.80
2008,09,29,13,41,22.80
2008,09,29,13,42,22.90
2008,09,29,13,43,22.90
2008,09,29,13,44,23.00
2008,09,29,13,45,23.10
2008,09,29,13,46,23.10
2008,09,29,13,47,23.10
2008,09,29,13,48,23.10
2008,09,29,13,49,23.00
2008,09,29,13,50,23.00
2008,09,29,13,51,22.90
2008,09,29,13,52,23.00
2008,09,29,13,53,23.00
2008,09,29,13,54,23.00
2008,09,29,13,55,23.00
2008,09,29,13,56,23.00
2008,09,29,13,57,23.00
2008,09,29,13,58,22.90
2008,09,29,13,59,22.90
2008,09,29,14,00,22.90
2008,09,29,14,01,22.90
2008,09,29,14,02,22.90
2008,09,29,14,03,22.90
2008,09,29,14,04,23.00
2008,09,29,14,05,23.10
2008,09,29,14,06,23.20
2008,09,29,14,07,23.20
2008,09,29,14,08,23.30
2008,09,29,14,09,23.30
2008,09,29,14,10,23.30
2008,09,29,14,11,23.30
2008,09,29,14,12,23.30
2008,09,29,14,13,23.30
2008,09,29,14,14,23.30
2008,09,29,14,15,23.30
2008,09,29,14,16,23.30
2008,09,29,14,17,23.30
2008,09,29,14,18,23.40
2008,09,29,14,19,23.40
2008,09,29,14,20,23.50
2008,09,29,14,21,23.50
2008,09,29,14,22,23.50
2008,09,29,14,23,23.60
2008,09,29,14,24,23.60
2008,09,29,14,25,23.60
2008,09,29,14,26,23.60
2008,09,29,14,27,23.60
2008,09,29,14,28,23.70
2008,09,29,14,29,23.60
2008,09,29,14,30,23.60
2008,09,29,14,31,23.60
2008,09,29,14,32,23.60
2008,09,29,14,33,23.70
2008,09,29,14,34,23.60
2008,09,29,14,35,23.60
2008,09,29,14,36,23.60
2008,09,29,14,37,23.60
2008,09,29,14,38,23.60
2008,09,29,14,39,23.70
2008,09,29,14,40,23.70
2008,09,29,14,41,23.70
2008,09,29,14,42,23.70
2008,09,29,14,43,23.80
2008,09,29,14,44,23.70
2008,09,29,14,45,23.70
2008,09,29,14,46,23.70
2008,09,29,14,47,23.60
2008,09,29,14,48,23.60
2008,09,29,14,49,23.60
2008,09,29,14,50,23.60
2008,09,29,14,51,23.60
2008,09,29,14,52,23.60
2008,09,29,14,53,23.70
2008,09,29,14,54,23.60
2008,09,29,14,55,23.60
2008,09,29,14,56,23.60
2008,09,29,14,57,23.60
2008,09,29,14,58,23.60
2008,09,29,14,59,23.60
2008,09,29,15,00,23.60
2008,09,29,15,01,23.60
2008,09,29,15,02,23.70
2008,09,29,15,03,23.70
2008,09,29,15,04,23.70
2008,09,29,15,05,23.70
2008,09,29,15,06,23.70
2008,09,29,15,07,23.80
2008,09,29,15,08,23.80
2008,09,29,15,09,23.80
2008,09,29,15,10,23.90
2008,09,29,15,11,23.90
2008,09,29,15,12,24.00
2008,09,29,15,13,24.10
2008,09,29,15,14,24.10
2008,09,29,15,15,24.10
2008,09,29,15,16,24.10
2008,09,29,15,17,24.20
2008,09,29,15,18,24.20
2008,09,29,15,19,24.20
2008,09,29,15,20,24.20
2008,09,29,15,21,24.20
2008,09,29,15,22,24.20
2008,09,29,15,23,24.30
2008,09,29,15,24,24.30
2008,09,29,15,25,24.30
2008,09,29,15,26,24.30
2008,09,29,15,27,24.30
2008,09,29,15,28,24.30
2008,09,29,15,29,24.30
2008,09,29,15,30,24.30
2008,09,29,15,31,24.40
2008,09,29,15,32,24.40
2008,09,29,15,33,24.40
2008,09,29,15,34,24.50
2008,09,29,15,35,24.50
2008,09,29,15,36,24.50
2008,09,29,15,37,24.50
2008,09,29,15,38,24.50
2008,09,29,15,39,24.50
2008,09,29,15,40,24.60
2008,09,29,15,41,24.50
2008,09,29,15,42,24.50
2008,09,29,15,43,24.50
2008,09,29,15,44,24.50
2008,09,29,15,45,24.50
2008,09,29,15,46,24.40
2008,09,29,15,47,24.40
2008,09,29,15,48,24.40
2008,09,29,15,49,24.40
2008,09,29,15,50,24.40
2008,09,29,15,51,24.40
2008,09,29,15,52,24.40
2008,09,29,15,53,24.40
2008,09,29,15,54,24.40
2008,09,29,15,55,24.40
2008,09,29,15,56,24.40
2008,09,29,15,57,24.30
2008,09,29,15,58,24.40
2008,09,29,15,59,24.40
2008,09,29,16,00,24.30
2008,09,29,16,01,24.30
2008,09,29,16,02,24.30
2008,09,29,16,03,24.30
2008,09,29,16,04,24.30
2008,09,29,16,05,24.30
2008,09,29,16,06,24.30
2008,09,29,16,07,24.40
2008,09,29,16,08,24.40
2008,09,29,16,09,24.40
2008,09,29,16,10,24.50
2008,09,29,16,11,24.50
2008,09,29,16,12,24.50
2008,09,29,16,13,24.50
2008,09,29,16,14,24.60
2008,09,29,16,15,24.60
2008,09,29,16,16,24.60
2008,09,29,16,17,24.60
2008,09,29,16,18,24.60
2008,09,29,16,19,24.60
2008,09,29,16,20,24.60
2008,09,29,16,21,24.60
2008,09,29,16,22,24.60
2008,09,29,16,23,24.60
2008,09,29,16,24,24.50
2008,09,29,16,25,24.50
2008,09,29,16,26,24.40
2008,09,29,16,27,24.40
2008,09,29,16,28,24.40
2008,09,29,16,29,24.40
2008,09,29,16,30,24.40
2008,09,29,16,31,24.40
2008,09,29,16,32,24.40
2008,09,29,16,33,24.30
2008,09,29,16,34,24.40
2008,09,29,16,35,24.40
2008,09,29,16,36,24.40
2008,09,29,16,37,24.40
2008,09,29,16,38,24.40
2008,09,29,16,39,24.30
2008,09,29,16,40,24.30
2008,09,29,16,41,24.30
2008,09,29,16,42,24.30
2008,09,29,16,43,24.30
2008,09,29,16,44,24.20
2008,09,29,16,45,24.20
2008,09,29,16,46,24.20
2008,09,29,16,47,24.20
2008,09,29,16,48,24.20
2008,09,29,16,49,24.30
2008,09,29,16,50,24.30
2008,09,29,16,51,24.30
2008,09,29,16,52,24.20
2008,09,29,16,53,24.20
2008,09,29,16,54,24.20
2008,09,29,16,55,24.10
2008,09,29,16,56,24.10
2008,09,29,16,57,24.10
2008,09,29,16,58,24.10
2008,09,29,16,59,24.10
2008,09,29,17,00,24.10
2008,09,29,17,01,24.00
2008,09,29,17,02,24.00
2008,09,29,17,03,24.00
2008,09,29,17,04,24.00
2008,09,29,17,05,23.90
2008,09,29,17,06,23.90
2008,09,29,17,07,23.90
2008,09,29,17,08,23.80
2008,09,29,17,09,23.80
2008,09,29,17,10,23.70
2008,09,29,17,11,23.70
2008,09,29,17,12,23.70
2008,09,29,17,13,23.70
2008,09,29,17,14,23.60
2008,09,29,17,15,23.50
2008,09,29,17,16,23.40
2008,09,29,17,17,23.40
2008,09,29,17,18,23.30
2008,09,29,17,19,23.30
2008,09,29,17,20,23.20
2008,09,29,17,21,23.20
2008,09,29,17,22,23.10
2008,09,29,17,23,23.10
2008,09,29,17,24,23.10
2008,09,29,17,25,23.10
2008,09,29,17,26,23.10
2008,09,29,17,27,23.00
2008,09,29,17,28,23.00
2008,09,29,17,29,22.90
2008,09,29,17,30,22.90
2008,09,29,17,31,22.80
2008,09,29,17,32,22.80
2008,09,29,17,33,22.80
2008,09,29,17,34,22.80
2008,09,29,17,35,22.80
2008,09,29,17,36,22.80
2008,09,29,17,37,22.80
2008,09,29,17,38,22.80